Location: Br�znic
(45.9167°N, 22.6500°E)
Time: 17:24:55
(UTC+00:00)

DMSP B5D2-2 - Pass Details

Date: 03 March 2021
Orbit: 789 x 807 km, 98.3° (Epoch: 11 April)

Event Time Altitude Azimuth Distance (km) Brightness Sun altitude
Rises 18:06:38 0° 13° (NNE) 3,311 7.3 -19.5°
Reaches altitude 10° 18:08:58 10° 13° (NNE) 2,374 6.5 -19.9°
Maximum altitude 18:14:14 88° 287° (WNW) 799 4.0 -20.8°
Drops below altitude 10° 18:19:26 10° 196° (SSW) 2,348 6.5 -21.6°
Sets 18:21:44 0° 197° (SSW) 3,272 7.3 -22.0°
